DHL1407 SVMI-MPTO

Flight info

Callsign DHL1407
Flight time 1h 54m
Altitude 32000
Route MARES1 MARES A315 ATONO G427 PBL UP650 TBG
Aircraft A306/H-SDE3FGHIRWY/LB1

Departure

Time 2026-05-05 01:13
Airport Maiquetía Simón Bolívar International Airport (SVMI)

Arrival

Time 2026-05-05 03:07
Airport Tocumen International Airport (MPTO)
Time Latitude Longitude Altitude Speed Heading
2026-05-05 00:45 10.60051 -66.98337 176 ft 0 kts 37°
2026-05-05 00:57 10.60054 -66.98335 176 ft 2 kts 36°
2026-05-05 00:57 10.60070 -66.98325 176 ft 3 kts 32°
2026-05-05 00:57 10.60087 -66.98313 176 ft 2 kts 37°
2026-05-05 00:57 10.60092 -66.98309 176 ft 0 kts 38°
2026-05-05 01:01 10.60092 -66.98308 176 ft 0 kts 38°
2026-05-05 01:01 10.60099 -66.98305 175 ft 1 kts 29°
2026-05-05 01:01 10.60121 -66.98305 175 ft 4 kts 346°
2026-05-05 01:01 10.60134 -66.98318 176 ft 1 kts 304°
2026-05-05 01:02 10.60135 -66.98320 176 ft 0 kts 301°
2026-05-05 01:02 10.60134 -66.98344 177 ft 5 kts 251°
2026-05-05 01:02 10.60094 -66.98406 178 ft 22 kts 239°
2026-05-05 01:02 10.60036 -66.98547 181 ft 21 kts 248°
2026-05-05 01:03 10.59991 -66.98670 201 ft 17 kts 254°
2026-05-05 01:03 10.59967 -66.98777 197 ft 14 kts 257°
2026-05-05 01:03 10.59946 -66.98868 201 ft 15 kts 255°
2026-05-05 01:03 10.59913 -66.98994 201 ft 19 kts 255°
2026-05-05 01:04 10.59884 -66.99110 208 ft 15 kts 256°
2026-05-05 01:04 10.59847 -66.99270 217 ft 7 kts 256°
2026-05-05 01:04 10.59838 -66.99308 213 ft 4 kts 256°
2026-05-05 01:05 10.59834 -66.99324 218 ft 1 kts 256°
2026-05-05 01:05 10.59833 -66.99325 218 ft 0 kts 256°
2026-05-05 01:06 10.59833 -66.99327 217 ft 2 kts 256°
2026-05-05 01:06 10.59826 -66.99357 216 ft 7 kts 256°
2026-05-05 01:06 10.59810 -66.99421 215 ft 12 kts 256°
2026-05-05 01:06 10.59797 -66.99517 219 ft 15 kts 272°
2026-05-05 01:07 10.59808 -66.99614 225 ft 12 kts 272°
2026-05-05 01:07 10.59823 -66.99699 226 ft 12 kts 303°
2026-05-05 01:07 10.59892 -66.99709 227 ft 13 kts 31°
2026-05-05 01:07 10.59980 -66.99671 225 ft 14 kts
2026-05-05 01:08 10.60089 -66.99672 220 ft 18 kts
2026-05-05 01:08 10.60230 -66.99672 214 ft 20 kts 337°
2026-05-05 01:08 10.60262 -66.99784 215 ft 16 kts 270°
2026-05-05 01:08 10.60258 -66.99900 221 ft 17 kts 267°
2026-05-05 01:09 10.60256 -67.00022 224 ft 19 kts 269°
2026-05-05 01:09 10.60250 -67.00168 227 ft 22 kts 265°
2026-05-05 01:09 10.60177 -67.00298 229 ft 22 kts 199°
2026-05-05 01:09 10.60049 -67.00360 232 ft 22 kts 245°
2026-05-05 01:10 10.60008 -67.00516 236 ft 24 kts 256°
2026-05-05 01:10 10.59984 -67.00688 238 ft 25 kts 277°
2026-05-05 01:10 10.59988 -67.00864 240 ft 24 kts 270°
2026-05-05 01:10 10.59984 -67.01024 243 ft 22 kts 265°
2026-05-05 01:11 10.59980 -67.01169 246 ft 19 kts 278°
2026-05-05 01:11 10.60057 -67.01242 247 ft 15 kts 353°
2026-05-05 01:11 10.60173 -67.01249 244 ft 20 kts 360°
2026-05-05 01:11 10.60321 -67.01249 246 ft 21 kts 10°
2026-05-05 01:12 10.60388 -67.01140 245 ft 20 kts 88°
2026-05-05 01:12 10.60403 -67.00810 239 ft 87 kts 89°
2026-05-05 01:12 10.60429 -66.99908 231 ft 167 kts 89°
2026-05-05 01:12 10.60479 -66.98548 640 ft 215 kts 87°
2026-05-05 01:13 10.60601 -66.97121 924 ft 187 kts 81°
2026-05-05 01:13 10.61000 -66.95804 1198 ft 209 kts 64°
2026-05-05 01:13 10.61921 -66.94593 1897 ft 225 kts 41°
2026-05-05 01:13 10.63342 -66.93844 2608 ft 240 kts 16°
2026-05-05 01:14 10.65057 -66.93742 3165 ft 256 kts 352°
2026-05-05 01:14 10.66761 -66.94360 3649 ft 270 kts 330°
2026-05-05 01:14 10.68214 -66.95627 3691 ft 278 kts 308°
2026-05-05 01:14 10.69086 -66.97362 3671 ft 276 kts 284°
2026-05-05 01:15 10.69223 -66.99260 3650 ft 273 kts 262°
2026-05-05 01:15 10.68671 -67.01099 3636 ft 273 kts 246°
2026-05-05 01:15 10.67975 -67.02899 3626 ft 273 kts 251°
2026-05-05 01:15 10.67649 -67.04824 3380 ft 281 kts 272°
2026-05-05 01:16 10.68152 -67.06710 3368 ft 277 kts 297°
2026-05-05 01:16 10.69206 -67.08348 3771 ft 278 kts 306°
2026-05-05 01:16 10.70372 -67.09931 4639 ft 281 kts 307°
2026-05-05 01:16 10.71556 -67.11514 5669 ft 283 kts 307°
2026-05-05 01:17 10.72770 -67.13129 6568 ft 292 kts 306°
2026-05-05 01:17 10.74013 -67.14780 7535 ft 297 kts 307°
2026-05-05 01:17 10.75281 -67.16465 8507 ft 302 kts 307°
2026-05-05 01:17 10.76565 -67.18173 9501 ft 307 kts 307°
2026-05-05 01:18 10.77878 -67.19917 10456 ft 313 kts 307°
2026-05-05 01:18 10.79243 -67.21734 10911 ft 335 kts 308°
2026-05-05 01:18 10.80683 -67.23660 11208 ft 357 kts 308°
2026-05-05 01:18 10.82226 -67.25732 11528 ft 376 kts 308°
2026-05-05 01:19 10.83834 -67.27898 11918 ft 389 kts 308°
2026-05-05 01:19 10.85486 -67.30123 12387 ft 398 kts 308°
2026-05-05 01:19 10.87168 -67.32390 12877 ft 405 kts 308°
2026-05-05 01:19 10.88881 -67.34695 13390 ft 410 kts 308°
2026-05-05 01:20 10.90608 -67.37021 13891 ft 415 kts 309°
2026-05-05 01:20 10.92355 -67.39373 14403 ft 417 kts 309°
2026-05-05 01:20 10.94054 -67.41771 14935 ft 420 kts 303°
2026-05-05 01:20 10.95348 -67.44458 15421 ft 426 kts 290°
2026-05-05 01:21 10.95962 -67.47412 15960 ft 429 kts 274°
2026-05-05 01:21 10.95735 -67.50451 16449 ft 433 kts 256°
2026-05-05 01:21 10.94626 -67.53286 16969 ft 433 kts 238°
2026-05-05 01:21 10.92908 -67.55813 17454 ft 435 kts 230°
2026-05-05 01:22 10.91000 -67.58170 17918 ft 438 kts 227°
2026-05-05 01:22 10.88967 -67.60490 18346 ft 441 kts 226°
2026-05-05 01:22 10.86889 -67.62809 18746 ft 444 kts 226°
2026-05-05 01:22 10.84809 -67.65144 19158 ft 446 kts 226°
2026-05-05 01:23 10.82734 -67.67509 19513 ft 449 kts 227°
2026-05-05 01:23 10.80663 -67.69905 19937 ft 450 kts 228°
2026-05-05 01:23 10.78603 -67.72312 20378 ft 451 kts 229°
2026-05-05 01:23 10.76546 -67.74730 20769 ft 452 kts 229°
2026-05-05 01:24 10.74488 -67.77156 21152 ft 454 kts 229°
2026-05-05 01:24 10.72445 -67.79564 21519 ft 456 kts 230°
2026-05-05 01:24 10.70372 -67.82006 21877 ft 457 kts 230°
2026-05-05 01:24 10.68286 -67.84460 22226 ft 459 kts 230°
2026-05-05 01:25 10.66192 -67.86921 22583 ft 461 kts 230°
2026-05-05 01:25 10.64093 -67.89386 22914 ft 462 kts 231°
2026-05-05 01:25 10.61980 -67.91867 23260 ft 464 kts 231°
2026-05-05 01:25 10.59866 -67.94348 23580 ft 465 kts 231°
2026-05-05 01:26 10.57745 -67.96836 23841 ft 467 kts 231°
2026-05-05 01:26 10.55612 -67.99336 24097 ft 468 kts 231°
2026-05-05 01:26 10.53476 -68.01839 24347 ft 470 kts 231°
2026-05-05 01:26 10.51423 -68.04430 24592 ft 470 kts 236°
2026-05-05 01:27 10.49722 -68.07253 24846 ft 469 kts 245°
2026-05-05 01:27 10.48473 -68.10311 25073 ft 467 kts 254°
2026-05-05 01:27 10.47728 -68.13518 25316 ft 466 kts 262°
2026-05-05 01:27 10.47217 -68.16775 25547 ft 467 kts 264°
2026-05-05 01:28 10.47067 -68.17909 25629 ft 467 kts 264°
2026-05-05 01:29 10.46916 -68.19121 25711 ft 468 kts 265°
2026-05-05 01:30 10.46536 -68.22420 25912 ft 470 kts 265°
2026-05-05 01:30 10.46171 -68.25727 26117 ft 471 kts 265°
2026-05-05 01:30 10.45801 -68.29037 26348 ft 472 kts 265°
2026-05-05 01:30 10.45418 -68.32365 26576 ft 474 kts 265°
2026-05-05 01:31 10.45022 -68.35695 26770 ft 475 kts 265°
2026-05-05 01:31 10.44624 -68.38986 26971 ft 476 kts 265°
2026-05-05 01:31 10.44215 -68.42331 27162 ft 477 kts 265°
2026-05-05 01:31 10.43802 -68.45681 27348 ft 478 kts 264°
2026-05-05 01:32 10.43389 -68.49036 27524 ft 479 kts 264°
2026-05-05 01:32 10.42971 -68.52414 27694 ft 481 kts 264°
2026-05-05 01:32 10.42554 -68.55790 27843 ft 482 kts 264°
2026-05-05 01:32 10.42136 -68.59176 27993 ft 483 kts 264°
2026-05-05 01:33 10.41719 -68.62560 28220 ft 482 kts 264°
2026-05-05 01:33 10.41301 -68.65946 28472 ft 481 kts 264°
2026-05-05 01:33 10.40884 -68.69318 28729 ft 480 kts 264°
2026-05-05 01:33 10.40468 -68.72687 28978 ft 480 kts 264°
2026-05-05 01:34 10.40054 -68.76045 29230 ft 479 kts 264°
2026-05-05 01:34 10.39640 -68.79398 29520 ft 478 kts 264°
2026-05-05 01:34 10.39231 -68.82699 29804 ft 477 kts 264°
2026-05-05 01:34 10.38816 -68.86042 30103 ft 476 kts 264°
2026-05-05 01:35 10.38402 -68.89380 30337 ft 476 kts 264°
2026-05-05 01:35 10.37988 -68.92712 30579 ft 475 kts 264°
2026-05-05 01:35 10.37574 -68.96038 30827 ft 475 kts 264°
2026-05-05 01:35 10.37160 -68.99365 31083 ft 474 kts 264°
2026-05-05 01:36 10.36746 -69.02693 31340 ft 473 kts 264°
2026-05-05 01:36 10.36333 -69.06006 31592 ft 473 kts 264°
2026-05-05 01:36 10.35921 -69.09315 31848 ft 472 kts 264°
2026-05-05 01:36 10.35507 -69.12623 31937 ft 468 kts 264°
2026-05-05 01:37 10.35103 -69.15834 31930 ft 448 kts 264°
2026-05-05 01:37 10.34720 -69.18879 31934 ft 433 kts 264°
2026-05-05 01:37 10.33967 -69.24901 31947 ft 428 kts 265°
2026-05-05 01:38 10.33219 -69.30889 31952 ft 427 kts 265°
2026-05-05 01:38 10.32597 -69.35865 31956 ft 428 kts 265°
2026-05-05 01:39 10.31845 -69.41853 31934 ft 427 kts 265°
2026-05-05 01:39 10.31093 -69.47845 31933 ft 428 kts 265°
2026-05-05 01:40 10.30338 -69.53836 31927 ft 427 kts 264°
2026-05-05 01:40 10.29581 -69.59815 31926 ft 426 kts 265°
2026-05-05 01:41 10.28825 -69.65782 31925 ft 425 kts 264°
2026-05-05 01:41 10.28071 -69.71747 31916 ft 426 kts 265°
2026-05-05 01:42 10.27317 -69.77694 31917 ft 432 kts 265°
2026-05-05 01:42 10.26538 -69.83856 31910 ft 447 kts 264°
2026-05-05 01:43 10.25733 -69.90192 31908 ft 457 kts 264°
2026-05-05 01:43 10.24907 -69.96661 31900 ft 466 kts 264°
2026-05-05 01:44 10.24070 -70.03217 31898 ft 471 kts 264°
2026-05-05 01:44 10.23225 -70.09825 31893 ft 472 kts 264°
2026-05-05 01:45 10.22376 -70.16455 31894 ft 476 kts 264°
2026-05-05 01:45 10.21521 -70.23123 31899 ft 476 kts 263°
2026-05-05 01:46 10.20662 -70.29811 31897 ft 478 kts 263°
2026-05-05 01:46 10.19799 -70.36510 31905 ft 478 kts 263°
2026-05-05 01:47 10.18936 -70.43206 31905 ft 478 kts 263°
2026-05-05 01:47 10.18072 -70.49901 31915 ft 478 kts 263°
2026-05-05 01:48 10.17210 -70.56561 31911 ft 478 kts 263°
2026-05-05 01:48 10.16342 -70.63264 31909 ft 479 kts 263°
2026-05-05 01:49 10.15472 -70.69974 31911 ft 479 kts 263°
2026-05-05 01:49 10.14606 -70.76636 31911 ft 479 kts 263°
2026-05-05 01:50 10.13734 -70.83338 31909 ft 479 kts 263°
2026-05-05 01:50 10.12859 -70.90046 31893 ft 479 kts 263°
2026-05-05 01:51 10.11983 -70.96751 31895 ft 480 kts 263°
2026-05-05 01:51 10.11103 -71.03473 31878 ft 480 kts 263°
2026-05-05 01:52 10.10221 -71.10199 31878 ft 480 kts 263°
2026-05-05 01:52 10.09339 -71.16922 31871 ft 480 kts 263°
2026-05-05 01:53 10.08461 -71.23597 31873 ft 480 kts 263°
2026-05-05 01:53 10.07576 -71.30310 31874 ft 480 kts 263°
2026-05-05 01:54 10.06687 -71.37024 31871 ft 480 kts 262°
2026-05-05 01:54 10.05685 -71.43730 31869 ft 480 kts 261°
2026-05-05 01:55 10.04622 -71.50422 31870 ft 480 kts 261°
2026-05-05 01:55 10.03561 -71.57120 31868 ft 481 kts 261°
2026-05-05 01:56 10.02506 -71.63840 31870 ft 482 kts 261°
2026-05-05 01:56 10.01461 -71.70523 31869 ft 483 kts 261°
2026-05-05 01:57 10.00404 -71.77255 31873 ft 483 kts 261°
2026-05-05 01:57 9.99344 -71.83980 31870 ft 483 kts 261°
2026-05-05 01:58 9.98283 -71.90706 31870 ft 483 kts 261°
2026-05-05 01:58 9.97223 -71.97428 31873 ft 483 kts 261°
2026-05-05 01:59 9.96161 -72.04151 31869 ft 483 kts 261°
2026-05-05 01:59 9.95097 -72.10879 31869 ft 483 kts 261°
2026-05-05 02:00 9.94033 -72.17595 31870 ft 483 kts 261°
2026-05-05 02:00 9.92974 -72.24275 31870 ft 483 kts 261°
2026-05-05 02:01 9.91905 -72.31003 31873 ft 482 kts 261°
2026-05-05 02:01 9.90839 -72.37707 31871 ft 481 kts 261°
2026-05-05 02:02 9.89771 -72.44413 31883 ft 481 kts 261°
2026-05-05 02:02 9.88708 -72.51082 31887 ft 481 kts 261°
2026-05-05 02:03 9.87637 -72.57788 31911 ft 481 kts 261°
2026-05-05 02:03 9.86565 -72.64497 31909 ft 481 kts 261°
2026-05-05 02:04 9.85498 -72.71164 31947 ft 481 kts 261°
2026-05-05 02:04 9.84423 -72.77871 31949 ft 481 kts 261°
2026-05-05 02:05 9.83346 -72.84584 31968 ft 481 kts 261°
2026-05-05 02:05 9.82268 -72.91289 31948 ft 481 kts 261°
2026-05-05 02:06 9.81187 -72.98000 31949 ft 481 kts 261°
2026-05-05 02:06 9.80090 -73.04645 31953 ft 481 kts 261°
2026-05-05 02:07 9.78976 -73.11333 31936 ft 481 kts 261°
2026-05-05 02:07 9.77862 -73.18019 31936 ft 481 kts 261°
2026-05-05 02:08 9.76748 -73.24707 31901 ft 481 kts 261°
2026-05-05 02:08 9.75632 -73.31404 31904 ft 482 kts 261°
2026-05-05 02:09 9.74515 -73.38106 31874 ft 482 kts 261°
2026-05-05 02:09 9.73396 -73.44801 31874 ft 482 kts 261°
2026-05-05 02:10 9.72275 -73.51506 31861 ft 482 kts 261°
2026-05-05 02:10 9.71152 -73.58211 31863 ft 482 kts 261°
2026-05-05 02:11 9.70037 -73.64868 31864 ft 482 kts 261°
2026-05-05 02:11 9.68913 -73.71569 31863 ft 481 kts 261°
2026-05-05 02:12 9.67246 -73.81601 31863 ft 481 kts 261°
2026-05-05 02:13 9.66137 -73.88279 31863 ft 481 kts 261°
2026-05-05 02:13 9.65021 -73.94982 31866 ft 481 kts 261°
2026-05-05 02:14 9.63913 -74.01625 31869 ft 481 kts 261°
2026-05-05 02:14 9.62796 -74.08316 31870 ft 482 kts 261°
2026-05-05 02:15 9.61678 -74.15007 31870 ft 482 kts 261°
2026-05-05 02:15 9.60558 -74.21698 31867 ft 482 kts 261°
2026-05-05 02:16 9.59435 -74.28398 31867 ft 482 kts 261°
2026-05-05 02:16 9.58311 -74.35098 31867 ft 482 kts 261°
2026-05-05 02:17 9.57187 -74.41790 31869 ft 482 kts 260°
2026-05-05 02:17 9.56063 -74.48473 31869 ft 481 kts 260°
2026-05-05 02:18 9.54937 -74.55160 31870 ft 481 kts 260°
2026-05-05 02:18 9.53809 -74.61851 31871 ft 481 kts 260°
2026-05-05 02:19 9.52681 -74.68535 31871 ft 481 kts 260°
2026-05-05 02:19 9.51552 -74.75219 31873 ft 481 kts 260°
2026-05-05 02:20 9.50431 -74.81845 32186 ft 477 kts 260°
2026-05-05 02:20 9.49868 -74.85156 32408 ft 475 kts 260°
2026-05-05 02:20 9.49287 -74.88444 32602 ft 474 kts 259°
2026-05-05 02:20 9.48690 -74.91728 32739 ft 474 kts 259°
2026-05-05 02:21 9.48085 -74.95017 32862 ft 474 kts 259°
2026-05-05 02:21 9.47479 -74.98306 33041 ft 473 kts 259°
2026-05-05 02:21 9.46876 -75.01578 33204 ft 473 kts 259°
2026-05-05 02:21 9.46275 -75.04852 33354 ft 473 kts 259°
2026-05-05 02:22 9.45675 -75.08128 33529 ft 472 kts 259°
2026-05-05 02:22 9.45076 -75.11399 33703 ft 472 kts 259°
2026-05-05 02:22 9.44478 -75.14668 33823 ft 473 kts 259°
2026-05-05 02:23 9.43287 -75.21175 33837 ft 473 kts 258°
2026-05-05 02:23 9.42086 -75.27727 33829 ft 473 kts 258°
2026-05-05 02:24 9.40884 -75.34283 33830 ft 473 kts 259°
2026-05-05 02:24 9.39680 -75.40835 33840 ft 473 kts 258°
2026-05-05 02:25 9.38676 -75.46293 33852 ft 474 kts 259°
2026-05-05 02:25 9.37265 -75.53955 33867 ft 474 kts 258°
2026-05-05 02:26 9.36063 -75.60476 33882 ft 474 kts 258°
2026-05-05 02:26 9.35050 -75.65970 33890 ft 474 kts 258°
2026-05-05 02:27 9.33845 -75.72493 33889 ft 474 kts 258°
2026-05-05 02:27 9.32631 -75.79063 33890 ft 474 kts 259°
2026-05-05 02:28 9.31420 -75.85603 33878 ft 471 kts 259°
2026-05-05 02:28 9.31130 -75.92177 33886 ft 469 kts 277°
2026-05-05 02:29 9.31854 -75.98753 33888 ft 470 kts 272°
2026-05-05 02:29 9.31634 -76.05331 33889 ft 470 kts 264°
2026-05-05 02:30 9.30659 -76.11871 33892 ft 470 kts 259°
2026-05-05 02:30 9.29320 -76.18370 33893 ft 472 kts 258°
2026-05-05 02:31 9.27937 -76.24901 33890 ft 475 kts 258°
2026-05-05 02:31 9.26544 -76.31434 33893 ft 475 kts 258°
2026-05-05 02:32 9.25145 -76.37982 33890 ft 475 kts 258°
2026-05-05 02:32 9.23751 -76.44492 33890 ft 475 kts 258°
2026-05-05 02:33 9.22349 -76.51036 33889 ft 475 kts 258°
2026-05-05 02:33 9.20949 -76.57566 33889 ft 474 kts 258°
2026-05-05 02:34 9.19548 -76.64094 33892 ft 475 kts 258°
2026-05-05 02:34 9.18140 -76.70647 33892 ft 476 kts 258°
2026-05-05 02:35 9.16731 -76.77196 33889 ft 476 kts 258°
2026-05-05 02:35 9.15328 -76.83714 33888 ft 476 kts 258°
2026-05-05 02:36 9.13915 -76.90274 33891 ft 478 kts 258°
2026-05-05 02:36 9.12490 -76.96880 33892 ft 482 kts 258°
2026-05-05 02:37 9.11061 -77.03501 33890 ft 482 kts 258°
2026-05-05 02:37 9.09627 -77.10139 33889 ft 482 kts 258°
2026-05-05 02:38 9.08194 -77.16766 33893 ft 482 kts 258°
2026-05-05 02:38 9.06767 -77.23356 33892 ft 482 kts 258°
2026-05-05 02:39 9.05329 -77.29997 33891 ft 483 kts 257°
2026-05-05 02:39 9.03885 -77.36654 33889 ft 484 kts 257°
2026-05-05 02:40 9.03078 -77.43385 33897 ft 483 kts 275°
2026-05-05 02:40 9.03922 -77.50094 33895 ft 484 kts 278°
2026-05-05 02:41 9.04867 -77.56833 33897 ft 483 kts 278°
2026-05-05 02:41 9.05791 -77.63559 33897 ft 484 kts 278°
2026-05-05 02:42 9.06712 -77.70324 33897 ft 485 kts 278°
2026-05-05 02:42 9.07627 -77.77078 33897 ft 484 kts 278°
2026-05-05 02:43 9.08537 -77.83800 33901 ft 485 kts 278°
2026-05-05 02:43 9.09450 -77.90561 33899 ft 484 kts 278°
2026-05-05 02:44 9.10361 -77.97311 33910 ft 484 kts 277°
2026-05-05 02:44 9.11272 -78.04074 33910 ft 485 kts 277°
2026-05-05 02:45 9.12181 -78.10833 33909 ft 484 kts 277°
2026-05-05 02:45 9.12635 -78.14214 33782 ft 483 kts 277°
2026-05-05 02:45 9.13082 -78.17536 33073 ft 483 kts 277°
2026-05-05 02:45 9.13535 -78.20911 32331 ft 484 kts 278°
2026-05-05 02:46 9.13988 -78.24287 31816 ft 485 kts 278°
2026-05-05 02:46 9.14443 -78.27679 31565 ft 486 kts 278°
2026-05-05 02:46 9.14896 -78.31064 31315 ft 484 kts 278°
2026-05-05 02:46 9.15346 -78.34431 31108 ft 484 kts 278°
2026-05-05 02:47 9.15796 -78.37792 30359 ft 481 kts 278°
2026-05-05 02:47 9.16245 -78.41154 29453 ft 481 kts 278°
2026-05-05 02:47 9.16692 -78.44498 28794 ft 476 kts 278°
2026-05-05 02:47 9.17133 -78.47804 28155 ft 471 kts 278°
2026-05-05 02:48 9.17570 -78.51080 27540 ft 467 kts 278°
2026-05-05 02:48 9.18002 -78.54322 26927 ft 463 kts 278°
2026-05-05 02:48 9.18430 -78.57539 26329 ft 459 kts 278°
2026-05-05 02:48 9.18849 -78.60688 25749 ft 455 kts 278°
2026-05-05 02:49 9.19269 -78.63847 25186 ft 450 kts 278°
2026-05-05 02:49 9.19685 -78.66978 24628 ft 448 kts 278°
2026-05-05 02:49 9.20100 -78.70099 24078 ft 446 kts 278°
2026-05-05 02:49 9.20512 -78.73200 23538 ft 443 kts 278°
2026-05-05 02:50 9.20920 -78.76279 22903 ft 439 kts 278°
2026-05-05 02:50 9.21323 -78.79327 22172 ft 435 kts 278°
2026-05-05 02:50 9.21722 -78.82340 21365 ft 427 kts 278°
2026-05-05 02:50 9.22114 -78.85302 20577 ft 422 kts 278°
2026-05-05 02:51 9.22503 -78.88240 19795 ft 420 kts 278°
2026-05-05 02:51 9.22887 -78.91145 19049 ft 412 kts 278°
2026-05-05 02:51 9.23261 -78.93985 18338 ft 402 kts 279°
2026-05-05 02:51 9.23625 -78.96747 17613 ft 391 kts 279°
2026-05-05 02:52 9.23977 -78.99409 16898 ft 381 kts 278°
2026-05-05 02:52 9.24324 -79.02041 16176 ft 371 kts 278°
2026-05-05 02:52 9.24660 -79.04586 15486 ft 359 kts 278°
2026-05-05 02:52 9.24985 -79.07055 14812 ft 349 kts 278°
2026-05-05 02:53 9.25299 -79.09459 14168 ft 340 kts 278°
2026-05-05 02:53 9.25325 -79.11826 13531 ft 333 kts 261°
2026-05-05 02:53 9.24519 -79.13976 13048 ft 326 kts 236°
2026-05-05 02:53 9.22961 -79.15622 12864 ft 324 kts 216°
2026-05-05 02:54 9.21140 -79.16906 12760 ft 322 kts 211°
2026-05-05 02:54 9.19264 -79.18143 12671 ft 321 kts 211°
2026-05-05 02:54 9.17392 -79.19375 12615 ft 321 kts 211°
2026-05-05 02:54 9.15521 -79.20615 12332 ft 320 kts 211°
2026-05-05 02:55 9.13663 -79.21852 11977 ft 319 kts 211°
2026-05-05 02:55 9.11815 -79.23086 11572 ft 317 kts 211°
2026-05-05 02:55 9.09981 -79.24312 11168 ft 315 kts 211°
2026-05-05 02:55 9.08161 -79.25529 10771 ft 312 kts 211°
2026-05-05 02:56 9.06354 -79.26738 10379 ft 310 kts 211°
2026-05-05 02:56 9.04580 -79.27925 9998 ft 308 kts 211°
2026-05-05 02:56 9.02788 -79.29116 9597 ft 306 kts 210°
2026-05-05 02:56 9.00962 -79.30193 9172 ft 303 kts 207°
2026-05-05 02:57 8.99124 -79.31214 8835 ft 300 kts 206°
2026-05-05 02:57 8.97298 -79.32220 8641 ft 298 kts 207°
2026-05-05 02:57 8.95471 -79.33227 8530 ft 298 kts 207°
2026-05-05 02:57 8.93654 -79.34230 8339 ft 296 kts 207°
2026-05-05 02:58 8.91870 -79.35216 8060 ft 288 kts 207°
2026-05-05 02:58 8.90159 -79.36162 7735 ft 274 kts 207°
2026-05-05 02:58 8.88501 -79.37079 7386 ft 270 kts 207°
2026-05-05 02:58 8.86861 -79.37985 6978 ft 268 kts 207°
2026-05-05 02:59 8.85232 -79.38885 6508 ft 266 kts 208°
2026-05-05 02:59 8.83753 -79.39979 6031 ft 264 kts 228°
2026-05-05 02:59 8.82928 -79.41578 5543 ft 259 kts 259°
2026-05-05 02:59 8.83027 -79.43348 5053 ft 251 kts 290°
2026-05-05 03:00 8.83841 -79.44838 4630 ft 234 kts 306°
2026-05-05 03:00 8.84793 -79.46148 4161 ft 229 kts 308°
2026-05-05 03:00 8.85754 -79.47436 3987 ft 229 kts 308°
2026-05-05 03:00 8.86709 -79.48726 3966 ft 228 kts 308°
2026-05-05 03:01 8.87717 -79.49887 3953 ft 210 kts 323°
2026-05-05 03:01 8.88979 -79.50485 3946 ft 196 kts 351°
2026-05-05 03:01 8.90278 -79.50397 3716 ft 189 kts 19°
2026-05-05 03:01 8.91410 -79.49713 3387 ft 187 kts 38°
2026-05-05 03:02 8.92371 -79.48880 3091 ft 181 kts 41°
2026-05-05 03:02 8.93282 -79.48059 2908 ft 170 kts 41°
2026-05-05 03:02 8.94143 -79.47289 2725 ft 161 kts 41°
2026-05-05 03:02 8.94952 -79.46573 2647 ft 148 kts 40°
2026-05-05 03:03 8.95720 -79.45900 2620 ft 146 kts 40°
2026-05-05 03:03 8.96505 -79.45242 2494 ft 147 kts 36°
2026-05-05 03:03 8.97361 -79.44686 2303 ft 146 kts 31°
2026-05-05 03:03 8.98234 -79.44159 2103 ft 146 kts 31°
2026-05-05 03:04 8.99098 -79.43642 1909 ft 146 kts 30°
2026-05-05 03:04 8.99973 -79.43118 1715 ft 145 kts 31°
2026-05-05 03:04 9.00839 -79.42599 1524 ft 145 kts 30°
2026-05-05 03:04 9.01692 -79.42088 1342 ft 140 kts 29°
2026-05-05 03:05 9.02520 -79.41590 1126 ft 139 kts 29°
2026-05-05 03:05 9.03349 -79.41085 982 ft 140 kts 30°
2026-05-05 03:05 9.04189 -79.40574 788 ft 140 kts 30°
2026-05-05 03:05 9.05058 -79.40046 641 ft 153 kts 30°
2026-05-05 03:06 9.05977 -79.39512 410 ft 149 kts 30°
2026-05-05 03:06 9.06845 -79.38994 196 ft 141 kts 31°
2026-05-05 03:06 9.07659 -79.38503 50 ft 128 kts 31°
2026-05-05 03:06 9.08254 -79.38145 51 ft 61 kts 31°
2026-05-05 03:07 9.08412 -79.38054 50 ft 12 kts 29°
2026-05-05 03:07 9.08493 -79.38005 48 ft 23 kts 31°
2026-05-05 03:07 9.08742 -79.37853 51 ft 41 kts 32°
2026-05-05 03:07 9.08805 -79.37709 45 ft 22 kts 125°
2026-05-05 03:08 9.08769 -79.37655 40 ft 2 kts 120°
2026-05-05 03:08 9.08755 -79.37630 39 ft 6 kts 120°
2026-05-05 03:08 9.08723 -79.37592 38 ft 8 kts 142°
2026-05-05 03:08 9.08667 -79.37575 37 ft 9 kts 182°
2026-05-05 03:09 9.08613 -79.37602 37 ft 9 kts 218°
2026-05-05 03:09 9.08562 -79.37640 37 ft 9 kts 216°
2026-05-05 03:09 9.08519 -79.37674 37 ft 0 kts 220°
2026-05-05 03:09 9.08517 -79.37675 37 ft 1 kts 220°
2026-05-05 03:10 9.08512 -79.37680 37 ft 1 kts 220°
2026-05-05 03:10 9.08508 -79.37682 37 ft 0 kts 220°
2026-05-05 03:10 9.08505 -79.37685 37 ft 1 kts 217°
2026-05-05 03:10 9.08499 -79.37687 37 ft 1 kts 203°
2026-05-05 03:11 9.08491 -79.37688 37 ft 1 kts 186°
2026-05-05 03:11 9.08473 -79.37680 37 ft 5 kts 141°
2026-05-05 03:11 9.08467 -79.37668 37 ft 4 kts 114°
2026-05-05 03:11 9.07592 -79.38543 55 ft 0 kts 30°
2026-05-05 03:12 9.07812 -79.38412 49 ft 80 kts 31°
2026-05-05 03:12 9.08260 -79.38132 51 ft 59 kts 42°
2026-05-05 03:12 9.08290 -79.37939 40 ft 22 kts 85°
2026-05-05 03:13 9.08324 -79.37875 38 ft 0 kts 47°
2026-05-05 03:13 9.08328 -79.37870 38 ft 1 kts 47°
2026-05-05 03:13 9.08338 -79.37860 38 ft 3 kts 47°
2026-05-05 03:13 9.08353 -79.37843 38 ft 4 kts 47°
2026-05-05 03:14 9.08373 -79.37821 38 ft 5 kts 47°
2026-05-05 03:14 9.08399 -79.37793 38 ft 6 kts 47°
2026-05-05 03:14 9.08430 -79.37760 38 ft 7 kts 47°
2026-05-05 03:14 9.08486 -79.37708 37 ft 14 kts 36°
2026-05-05 03:15 9.08547 -79.37663 37 ft 8 kts 36°
2026-05-05 03:15 9.08595 -79.37629 37 ft 9 kts 32°
2026-05-05 03:15 9.08624 -79.37607 37 ft 5 kts 48°
2026-05-05 03:15 9.08632 -79.37577 37 ft 4 kts 95°
2026-05-05 03:16 9.08619 -79.37560 37 ft 3 kts 142°
2026-05-05 03:16 9.08598 -79.37551 37 ft 4 kts 156°
2026-05-05 03:16 9.08582 -79.37533 35 ft 2 kts 120°